STARLINK-3999, 52704

Orbit data source: Space-Track

STARLINK-3999, 52704 is a payload satellite owned by SpaceX/Seattle (US) in LEO that was launched on Wed, 18 May 2022 UTC via an FALCON 9 launch vehicle from the Air Force Eastern Test Range (AFETR). Payload-class satellites include a variety of spacecraft equipped with specific instruments for various scientific and technological missions. These include communications satellites like Starlink; space stations such as the ISS; scientific satellites like the Hubble; Earth observation satellites from companies like Planet Labs, Umbra, and HawkEye 360; GPS; miniature CubeSats for education and research; and military/defense satellites.

Loading next visibility...
Identifier
52704, 2022-053BA
Orbit
LEO
Country
Flag of USUS
Related business
Manufacturer
SpaceX/Seattle
Mission
Operational Commercial Communications
Bus & Motor
STARLINK, Unknown motor
Mass
297 kg wet, ~275 kg dry
Launch date (UTC)
2022-05-18 (4 years ago)
Launch vehicle
FALCON 9
Launch site
Air Force Eastern Test Range (AFETR)
Object type
Payload
Rocket body
Debris
Shape & HBR
Box + 1 Pan, 10.1 m
Radar Cross Section
13.562 m², Large (>1 m²)

Expand to show TLE details & history
Last TLE update: 2 days ago

TLE from 2 days ago
0 STARLINK-3999
1 52704U 22053BA  26171.03031289  .00002343  00000-0  16531-3 0  9994
2 52704  53.1611  34.5838 0001589  65.4262 294.6895 15.08825545226765
Epoch: 2026-06-20T00:43Z
TLE epoch observation values (Epoch: 2026-06-20T00:43:39.033Z)
Latitude
-0.00003°
Longitude
115.42035°
Altitude
540.22 km
Speed
7.594 km/s
True Right ascension
02h 18m 20s
True Declination
0° 00' 00"
Sunlit
Object was in daylight at epoch
Visualization orbit readout
Latitude
Unknown
Longitude
Unknown
Altitude
Unknown
Speed
Unknown
Apparent Right ascension
Unknown
Apparent Declination
Unknown
Sunlit
N/A
Visualization observer readout
Local Sidereal Time
21:32:38
Azimuth
Unknown
Elevation
Unknown
Doppler factor
Unknown
Orbital elements
Apogee altitude
541.141 km
Perigee altitude
538.942 km
Semi-major axis
6,918.179 km
Eccentricity
0.00016
Inclination
53.1611°
RAAN
34.5838°
Arg. of periapsis
65.4262°
True anomaly
294.67295°
Mean anomaly
294.6895°
Eccentric anomaly
294.68123°
Mean motion
3.77186 °/min
Orbital period
95.44 mins
BSTAR
0.00016531
Loading maneuver chart data...
Computing Atmospheric mass density...
Loading historical data...
Loading historical data...
Loading historical data...
Loading historical data...
Loading historical data...
Loading historical data...
Loading historical data...

Documentation

Showing up to 5 results
|